Regional Weather Roundup
Issued by NWS

Home | Current Version | Previous Version | Text Only | Print | Product List | Glossary Off
Versions: 1 2 3 4 5 6 7 8 9 10 11 12 13 14 15 16 17 18 19 20 21 22 23 24 25 26 27 28 29 30 31 32 33 34 35 36 37 38 39 40 41 42 43 44 45 46 47 48 49 50

000
ASUS45 KBOU 171110
RWRCO

WEATHER ROUNDUP FOR COLORADO
NATIONAL WEATHER SERVICE DENVER/BOULDER CO
400 AM MST SUN DEC 17 2017

NOTE: "FAIR" INDICATES FEW OR NO CLOUDS BELOW 12000 FEET WITH NO
SIGNIFICANT WEATHER AND/OR OBSTRUCTIONS TO VISIBILITY.

COZ001>005-013-030-031-171200-
...NORTHWEST COLORADO...

CITY           SKY/WX    TMP DP  RH WIND       PRES   REMARKS
CRAIG          CLOUDY    14  10  84 CALM      29.98R
HAYDEN         CLOUDY    16  11  80 CALM      29.98R
MEEKER         FAIR      10   5  80 E3        29.97R
RABBIT EARS PA FAIR      14   7  73 W13G20    29.90R WCI   0
STEAMBOAT SPGS FAIR      14  10  86 CALM      29.96R
WALDEN         FAIR       5   0  78 CALM      29.93R
$$

COZ006>008-011-171200-
...WEST CENTRAL VALLEYS...

CITY           SKY/WX    TMP DP  RH WIND       PRES   REMARKS
GRAND JUNCTION FAIR      17   5  59 E6        29.98R WCI   9
MONTROSE       FAIR      16   6  65 SE6       30.00R WCI   7
EAGLE          FAIR       7   4  87 SE3       30.01R
RIFLE          FAIR      15   6  67 CALM      29.99R
DELTA          FAIR      22   6  50 CALM      29.99R
NUCLA          FAIR      23  -2  33 SE6       30.01R WCI  16
$$

COZ017>023-064>068-171200-
...SOUTHWEST COLORADO...

CITY           SKY/WX    TMP DP  RH WIND       PRES   REMARKS
DURANGO        FAIR      25  10  53 N3        29.95R
CORTEZ         FAIR      23   5  46 NE5       29.96R WCI  17
PAGOSA SPRINGS FAIR      22   6  49 CALM      29.97R
TELLURIDE      FAIR      26  -4  26 SE3       29.97R
WOLF CREEK PAS FAIR      14   1  57 SW18G26   29.99F WCI  -3
$$

COZ009-010-012-014-032>034-037-058>063-171200-
...CENTRAL COLORADO...

CITY           SKY/WX    TMP DP  RH WIND       PRES   REMARKS
ASPEN          FAIR      13   4  67 S6        29.91R WCI   4
BUENA VISTA    FAIR      14   7  72 CALM      29.91R
COPPER MTN     NOT AVBL
BERTHOUD PASS  FAIR      10   0  61 NW13G23   29.90S WCI  -5
COTTONWOOD PAS FAIR      36  -9  14 W13G25    29.89S
GUNNISON       FAIR       9   5  84 N3        29.97R
KREMMLING      FAIR       1  -4  78 CALM      29.98R
LEADVILLE      FAIR       7  -1  70 NE8       29.89S WCI  -6
MONARCH PASS   FAIR      18   1  49 W26       30.02S WCI  -1
SALIDA         FAIR      21   9  60 CALM      29.99R
SUNLIGHT       FAIR      16  -4  41 SW9       29.98R WCI   4
WILKERSON PASS MOCLDY    21   0  39 W12G21    29.91S WCI   9
$$

COZ069>075-171200-
...SAN LUIS VALLEY/SANGRE DE CRISTO MOUNTAINS...

CITY           SKY/WX    TMP DP  RH WIND       PRES   REMARKS
ALAMOSA        FAIR      12   7  80 E3        29.92R
DEL NORTE      CLOUDY    19   8  61 SW6       29.93R WCI  11
LA VETA PASS   CLOUDY    21   3  45 MISG        N/A
SAGUACHE       FAIR      18   7  62 CALM      29.94R
$$

COZ035-036-038>040-171200-
...NORTHERN COLORADO FRONT RANGE...

CITY           SKY/WX    TMP DP  RH WIND       PRES   REMARKS
DENVER INTL AP FOG       28  26  92 SE5       29.94R VSB 1/2 WCI  23
DMNS CITY PARK NOT AVBL
AURORA         CLOUDY    28  27  99 CALM      29.93R FOG
FRONT RANGE AP FOG       31  30  96 CALM      29.94R VSB 3/4
ERIE MUNI ARPT CLOUDY    32  29  89 CALM      30.01R
BOULDER MUN AP CLOUDY    32  30  93 NE3       29.95R
CENTENNIAL     CLOUDY    28  27  96 SE5       29.92R FOG     WCI  23
BROOMFIELD     CLOUDY    32  28  86 CALM      29.94R
FORT COLLINS   CLOUDY    30  29  96 E6        29.96R FOG     WCI  24
LONGMONT       CLOUDY    33  30  88 E3        29.97R
$$

COZ041-046-047-076>085-087-088-171200-
...PIKES PEAK/PALMER DIVIDE AND SOUTHERN FOOTHILLS...

CITY           SKY/WX    TMP DP  RH WIND       PRES   REMARKS
COLO. SPRINGS  MOCLDY    24  20  84 S6        29.93R WCI  17
A. F. ACADEMY  CLEAR     20  18  89 N7        29.90R WCI  11
SCHRIEVER AFB  FAIR      23  22  93 CALM      29.93R
CHEYENNE MTN   MOCLDY    24  20  83 CALM      29.85R
ELLICOTT       CLOUDY   N/A N/A N/A NE13      29.91S
FALCON         FAIR      22  21  94 N5        29.91R WCI  16
FORT CARSON    FAIR      22  20  91 S6        29.92R WCI  14
LIMON          CLOUDY    28  27  96 NW6       29.94R WCI  22
MONUMENT HILL  CLOUDY    23  21  93 CALM      29.91S FOG
CANON CITY     FAIR      28  23  80 E6        29.95R WCI  22
WALSENBURG     FAIR      19  16  86 W5        29.93S WCI  13
TRINIDAD       CLOUDY    24  19  81 W3        29.95R
$$

COZ042>045-048>051-090-091-171200-
...NORTHEAST COLORADO...

CITY           SKY/WX    TMP DP  RH WIND       PRES   REMARKS
GREELEY ARPT   CLOUDY    30  29  96 E6        29.97S FOG     WCI  24
AKRON          CLOUDY    29  28  96 NE10      29.95S FOG     WCI  20
BURLINGTON     CLOUDY    32  30  92 N10       29.94R WCI  24
WRAY           CLOUDY   N/A N/A N/A N7        29.97S FOG
YUMA           CLOUDY    30  30 100 N9        29.96S FOG     WCI  22
STERLING       CLOUDY    32  32 100 NE6       29.97R WCI  26
HOLYOKE        CLOUDY    34  32  93 N9        29.99R FOG     WCI  26
FORT MORGAN    CLOUDY    30  29  96 NE7       29.97S FOG     WCI  23
$$

COZ086-089-092>099-171200-
...SOUTHEAST COLORADO...

CITY           SKY/WX    TMP DP  RH WIND       PRES   REMARKS
PUEBLO         CLOUDY    28  22  78 W5        29.98R WCI  23
LA JUNTA       CLOUDY    33  27  78 N5        29.98R WCI  29
LAMAR          CLOUDY    33  26  75 N10       29.95R WCI  25
SPRINGFIELD      N/A     28  26  92 N20       29.91S WCI  15
$$



USA.gov is the U.S. government's official web portal to all federal, state and local government web resources and services.